Regional Weather Roundup
Issued by NWS Northern Indiana

Home | Current Version | Previous Version | Graphics & Text | Print | Product List | Glossary On
Versions: 1 2 3 4 5 6 7 8 9 10 11 12 13 14 15 16 17 18 19 20 21 22 23 24 25 26 27 28 29 30 31 32 33 34 35 36 37 38 39 40 41 42 43 44 45 46 47 48 49 50
000
ASUS43 KIWX 280900
RWRIWX

KIWX WEATHER ROUNDUP
NATIONAL WEATHER SERVICE NORTHERN INDIANA
500 AM EDT THU MAY 28 2015

NOTE: "FAIR" INDICATES FEW OR NO CLOUDS BELOW 12,000 FEET WITH NO
SIGNIFICANT WEATHER AND/OR OBSTRUCTIONS TO VISIBILITY.

* THESE STATIONS ARE NOT UNDER NWS QUALITY CONTROL. THEY ALSO MAY NOT
  REPORT WEATHER SUCH AS PRECIPITATION OR FOG.

INZ001>027-281000-
NORTHERN INDIANA

CITY           SKY/WX    TMP DP  RH WIND       PRES   REMARKS
SOUTH BEND     CLEAR     53  51  93 CALM      30.19S
GOSHEN         FOG       52  52 100 CALM      30.19S VSB 1/2
ANGOLA*        CLOUDY    52  50  93 CALM      30.20R VSB 0
FORT WAYNE     CLEAR     56  55  97 N5        30.20R
PERU/GRISSOM   CLEAR     52  52 100 E2        30.18R FOG

$$
INZ028>050-281000-
CENTRAL INDIANA

CITY           SKY/WX    TMP DP  RH WIND       PRES   REMARKS
LAFAYETTE      CLEAR     54  53  97 CALM      30.18R FOG
KOKOMO*        CLEAR     54  52  94 CALM      30.18S
MUNCIE*        CLEAR     59  55  87 N5        30.18R
INDIANAPOLIS   CLEAR     63  56  78 NE6       30.15S

$$
MIZ043>046-050>051-056>058-064>065-071>073-077>080-281000-
SOUTHWEST LOWER MICHIGAN

CITY           SKY/WX    TMP DP  RH WIND       PRES   REMARKS
BATTLE CREEK   CLEAR     54  51  90 S3        30.19R
BENTON HARBOR  CLEAR     51  51 100 CALM      30.18R FOG
COLDWATER*     FOG       49  49  99 CALM      30.19S VSB 1/2
HILLSDALE*     FOG       52  52 100 CALM      30.20R VSB 3/4
HOLLAND        CLEAR     55  53  93 S3        30.17S
GRAND RAPIDS   CLEAR     55  54  96 CALM      30.18R
KALAMAZOO      CLEAR     54  52  93 CALM      30.19R
STURGIS*       CLEAR     54  52  94 CALM      30.19S FOG
THREE RIVERS*  FOG       53  53  98 CALM      30.19R VSB 3/4

$$
OHZ001>008-015>018-024>025-281000-
NORTHWEST OHIO

CITY           SKY/WX    TMP DP  RH WIND       PRES   REMARKS
DEFIANCE       CLEAR     58  55  90 CALM      30.19R
FINDLAY        PTCLDY    61  59  93 N6        30.16R
TOLEDO EXPRESS CLEAR     56  55  97 CALM      30.18R
TOLEDO METCALF CLEAR     58  55  90 CALM      30.18R
LIMA           PTCLDY    61  58  90 CALM      30.18R

$$
AND FOR LAKE MICHIGAN COASTAL AND OPEN LAKE BUOY OBSERVATIONS

STATION/POSITION TEMP    WIND        PRES    VSBY  WAVE
                 AIR SEA DIR/SP/G                  HT/PER
                 (F)     (DEG/KT/KT) (MB)    (MI)  (FT/S)
MICHIGAN CITY     59     140/  6/  7   N/A
BURNS HARBOR      59     180/  6/  8 1022.0S
SAINT JOSEPH      57      CALM  /  3 1022.7R
SOUTH LAKE BUOY   44 38  200/ 10/ 10 1021.9R         0
4 MI NW BRIDGMAN  56 55  190/  4/  4   N/A           0
MICHIGAN CITY     55 53  160/  2/  4   N/A           0

$$
&&


USA.gov is the U.S. government's official web portal to all federal, state and local government web resources and services.